Orange City, IA

12:29 PM CDT on March 29, 2017 (GMT -0500)
Orange City Municipal

Weather History for KORC - March, 2013

Change the Weather History Date:

Saturday, March 16, 2013

  Actual Average Record
Temperature  
Mean Temperature 27 °F -  
Max Temperature 33 °F 40 °F 80 °F (2012)
Min Temperature 21 °F 24 °F 17 °F (1952)
Degree Days  
Heating Degree Days 38    
Moisture  
Dew Point 21 °F    
Average Humidity 76    
Maximum Humidity 93    
Minimum Humidity 64    
Precipitation  
Precipitation 0.00 in - - ()
Sea Level Pressure  
Sea Level Pressure 30.08 in    
Wind  
Wind Speed 12 mph (North)    
Max Wind Speed 17 mph    
Max Gust Speed 25 mph    
Visibility 10 miles    
Events      
Averages and records for this station are not official NWS values.
T = Trace of Precipitation, MM = Missing Value Source: NWS Daily Summary

Daily Weather History Graph

Daily Weather History Graph

Search for Another Location

Airport or City:

Trip Planner

Search our weather history database for the weather conditions in past years. The results will help you decide how hot, cold, wet, or windy it might be!

Date:

Astronomy

Mar. 16, 2013 Rise Set
Actual Time 7:34 AM CDT 7:32 PM CDT
Civil Twilight 7:05 AM CDT 8:00 PM CDT
Nautical Twilight 6:32 AM CDT 8:33 PM CDT
Astronomical Twilight 5:59 AM CDT 9:07 PM CDT
Moon 9:56 AM CDT (3/16) No Moon Set
Length of Visible Light 12h 54m
Length of Day
11h 58m
Waxing Crescent, 23% of the Moon is Illuminated
Mar 16
Waxing Crescent
Mar 19
First Quarter
Mar 27
Full
Apr 2
Last Quarter
Apr 10
New

Hourly Weather History & Observations

Time (CDT) Temp. Windchill Dew Point Humidity Pressure Visibility Wind Dir Wind Speed Gust Speed Precip Events Conditions
12:15 AM 33.8 °F 24.8 °F 32.0 °F 93% 29.87 in 3.0 mi NNW 12.7 mph 18.4 mph N/A   Overcast
12:35 AM 33.8 °F 24.3 °F 30.2 °F 87% 29.89 in 4.0 mi NNW 13.8 mph 18.4 mph N/A   Overcast
12:55 AM 33.8 °F 24.8 °F 30.2 °F 87% 29.88 in 5.0 mi NNW 12.7 mph - N/A   Overcast
1:15 AM 33.8 °F 24.8 °F 30.2 °F 87% 29.89 in 5.0 mi NNW 12.7 mph 19.6 mph N/A   Overcast
1:35 AM 33.8 °F 23.9 °F 30.2 °F 87% 29.89 in 3.0 mi NNW 15.0 mph 18.4 mph N/A   Overcast
1:55 AM 33.8 °F 23.9 °F 28.4 °F 81% 29.91 in 7.0 mi NNW 15.0 mph 20.7 mph N/A   Overcast
2:15 AM 32.0 °F 23.0 °F 28.4 °F 87% 29.92 in 10.0 mi NNW 11.5 mph 18.4 mph N/A   Overcast
2:35 AM 32.0 °F 23.0 °F 28.4 °F 87% 29.92 in 10.0 mi NNW 11.5 mph - N/A   Overcast
2:55 AM 32.0 °F 22.1 °F 26.6 °F 80% 29.94 in 10.0 mi NW 13.8 mph 23.0 mph N/A   Overcast
3:15 AM 30.2 °F 18.9 °F 26.6 °F 86% 29.95 in 10.0 mi NW 16.1 mph 19.6 mph N/A   Overcast
3:35 AM 30.2 °F 19.3 °F 26.6 °F 86% 29.96 in 10.0 mi NNW 15.0 mph - N/A   Overcast
3:55 AM 30.2 °F 19.3 °F 26.6 °F 86% 29.96 in 10.0 mi NW 15.0 mph 21.9 mph N/A   Overcast
4:15 AM 30.2 °F 19.3 °F 26.6 °F 86% 29.97 in 10.0 mi NNW 15.0 mph 25.3 mph N/A   Overcast
4:35 AM 30.2 °F 18.5 °F 24.8 °F 80% 29.98 in 10.0 mi North 17.3 mph 25.3 mph N/A   Overcast
4:55 AM 28.4 °F 16.6 °F 24.8 °F 86% 29.98 in 10.0 mi NNW 16.1 mph 21.9 mph N/A   Overcast
5:15 AM 28.4 °F 16.6 °F 24.8 °F 86% 29.99 in 10.0 mi NNW 16.1 mph 21.9 mph N/A   Overcast
5:35 AM 26.6 °F 15.2 °F 24.8 °F 93% 30.01 in 10.0 mi NNW 13.8 mph 21.9 mph N/A   Overcast
5:55 AM 28.4 °F 17.0 °F 24.8 °F 86% 30.03 in 10.0 mi NNW 15.0 mph - N/A   Overcast
6:15 AM 26.6 °F 14.7 °F 23.0 °F 86% 30.04 in 10.0 mi NNW 15.0 mph 24.2 mph N/A   Overcast
6:35 AM 26.6 °F 14.7 °F 21.2 °F 80% 30.05 in 10.0 mi North 15.0 mph 23.0 mph N/A   Overcast
6:55 AM 26.6 °F 14.3 °F 21.2 °F 80% 30.06 in 10.0 mi North 16.1 mph 19.6 mph N/A   Overcast
7:15 AM 26.6 °F 15.2 °F 21.2 °F 80% 30.07 in 10.0 mi North 13.8 mph - N/A   Overcast
7:35 AM 26.6 °F 15.2 °F 21.2 °F 80% 30.08 in 10.0 mi North 13.8 mph - N/A   Overcast
7:55 AM 26.6 °F 14.7 °F 21.2 °F 80% 30.09 in 10.0 mi North 15.0 mph 19.6 mph N/A   Overcast
8:15 AM 24.8 °F 12.9 °F 21.2 °F 86% 30.09 in 10.0 mi North 13.8 mph 20.7 mph N/A   Overcast
8:35 AM 24.8 °F 12.4 °F 19.4 °F 80% 30.10 in 10.0 mi NNW 15.0 mph 20.7 mph N/A   Overcast
8:55 AM 24.8 °F 12.4 °F 19.4 °F 80% 30.10 in 10.0 mi North 15.0 mph - N/A   Overcast
9:15 AM 24.8 °F 13.4 °F 19.4 °F 80% 30.10 in 10.0 mi North 12.7 mph 20.7 mph N/A   Overcast
9:35 AM 24.8 °F 15.3 °F 19.4 °F 80% 30.11 in 10.0 mi North 9.2 mph 19.6 mph N/A   Overcast
9:55 AM 24.8 °F 13.4 °F 19.4 °F 80% 30.10 in 10.0 mi North 12.7 mph 19.6 mph N/A   Overcast
10:15 AM 24.8 °F 13.4 °F 19.4 °F 80% 30.11 in 10.0 mi North 12.7 mph 18.4 mph N/A   Overcast
10:35 AM 24.8 °F 14.6 °F 17.6 °F 74% 30.11 in 10.0 mi North 10.4 mph 16.1 mph N/A   Overcast
10:55 AM 24.8 °F 16.1 °F 17.6 °F 74% 30.12 in 10.0 mi North 8.1 mph 17.3 mph N/A   Overcast
11:15 AM 24.8 °F 15.3 °F 17.6 °F 74% 30.13 in 10.0 mi North 9.2 mph - N/A   Overcast
11:35 AM 24.8 °F 16.1 °F 17.6 °F 74% 30.13 in 10.0 mi North 8.1 mph - N/A   Overcast
11:55 AM 24.8 °F 14.0 °F 17.6 °F 74% 30.14 in 10.0 mi North 11.5 mph 16.1 mph N/A   Overcast
12:15 PM 26.6 °F 16.8 °F 17.6 °F 69% 30.14 in 10.0 mi North 10.4 mph - N/A   Overcast
12:35 PM 26.6 °F 17.5 °F 17.6 °F 69% 30.14 in 10.0 mi NNE 9.2 mph - N/A   Overcast
12:55 PM 26.6 °F 16.8 °F 17.6 °F 69% 30.14 in 10.0 mi North 10.4 mph - N/A   Mostly Cloudy
1:15 PM 28.4 °F 19.7 °F 19.4 °F 69% 30.13 in 10.0 mi North 9.2 mph - N/A   Mostly Cloudy
1:35 PM 26.6 °F 16.2 °F 19.4 °F 74% 30.12 in 10.0 mi North 11.5 mph 16.1 mph N/A   Mostly Cloudy
1:55 PM 28.4 °F 19.7 °F 19.4 °F 69% 30.12 in 10.0 mi North 9.2 mph 16.1 mph N/A   Mostly Cloudy
2:15 PM 28.4 °F 21.2 °F 17.6 °F 64% 30.11 in 10.0 mi North 6.9 mph 16.1 mph N/A   Mostly Cloudy
2:35 PM 28.4 °F 23.3 °F 17.6 °F 64% 30.12 in 10.0 mi North 4.6 mph - N/A   Overcast
2:55 PM 28.4 °F - 19.4 °F 69% 30.11 in 10.0 mi Calm Calm - N/A   Overcast
3:15 PM 28.4 °F 21.2 °F 19.4 °F 69% 30.10 in 10.0 mi North 6.9 mph - N/A   Overcast
3:35 PM 28.4 °F 20.4 °F 19.4 °F 69% 30.10 in 10.0 mi North 8.1 mph - N/A   Overcast
3:55 PM 28.4 °F 21.2 °F 19.4 °F 69% 30.10 in 10.0 mi NNE 6.9 mph - N/A   Mostly Cloudy
4:15 PM 28.4 °F 19.7 °F 19.4 °F 69% 30.10 in 10.0 mi NNE 9.2 mph - N/A   Overcast
4:35 PM 28.4 °F 20.4 °F 19.4 °F 69% 30.11 in 10.0 mi NNE 8.1 mph - N/A   Overcast
4:55 PM 28.4 °F 20.4 °F 19.4 °F 69% 30.11 in 10.0 mi North 8.1 mph - N/A   Mostly Cloudy
5:15 PM 28.4 °F 22.2 °F 19.4 °F 69% 30.11 in 10.0 mi NNE 5.8 mph - N/A   Mostly Cloudy
5:35 PM 28.4 °F 23.3 °F 17.6 °F 64% 30.11 in 10.0 mi North 4.6 mph - N/A   Overcast
5:55 PM 28.4 °F 21.2 °F 19.4 °F 69% 30.11 in 10.0 mi North 6.9 mph - N/A   Overcast
6:15 PM 28.4 °F 19.7 °F 17.6 °F 64% 30.11 in 10.0 mi North 9.2 mph - N/A   Mostly Cloudy
6:35 PM 28.4 °F 21.2 °F 19.4 °F 69% 30.11 in 10.0 mi NNE 6.9 mph - N/A   Overcast
6:55 PM 26.6 °F 17.5 °F 17.6 °F 69% 30.11 in 10.0 mi North 9.2 mph - N/A   Overcast
7:15 PM 26.6 °F 17.5 °F 17.6 °F 69% 30.11 in 10.0 mi NNE 9.2 mph - N/A   Overcast
7:35 PM 26.6 °F 19.1 °F 17.6 °F 69% 30.13 in 10.0 mi NNE 6.9 mph - N/A   Overcast
7:55 PM 26.6 °F 18.2 °F 17.6 °F 69% 30.14 in 10.0 mi NNE 8.1 mph - N/A   Overcast
8:15 PM 26.6 °F 18.2 °F 17.6 °F 69% 30.16 in 10.0 mi North 8.1 mph - N/A   Overcast
8:35 PM 24.8 °F 19.1 °F 17.6 °F 74% 30.17 in 10.0 mi North 4.6 mph - N/A   Overcast
8:55 PM 24.8 °F 16.9 °F 17.6 °F 74% 30.18 in 10.0 mi North 6.9 mph - N/A   Overcast
9:15 PM 24.8 °F 16.9 °F 15.8 °F 69% 30.18 in 10.0 mi North 6.9 mph - N/A   Mostly Cloudy
9:35 PM 24.8 °F 16.1 °F 15.8 °F 69% 30.19 in 10.0 mi NNE 8.1 mph - N/A   Scattered Clouds
9:55 PM 24.8 °F 16.1 °F 15.8 °F 69% 30.19 in 10.0 mi NNE 8.1 mph - N/A   Scattered Clouds
10:15 PM 23.0 °F 13.9 °F 15.8 °F 74% 30.19 in 10.0 mi NNE 8.1 mph - N/A   Scattered Clouds
10:35 PM 23.0 °F 15.8 °F 15.8 °F 74% 30.19 in 10.0 mi NE 5.8 mph - N/A   Scattered Clouds
10:55 PM 21.2 °F 12.6 °F 15.8 °F 80% 30.20 in 10.0 mi NE 6.9 mph - N/A   Scattered Clouds
11:15 PM 21.2 °F 12.6 °F 15.8 °F 80% 30.19 in 10.0 mi NE 6.9 mph - N/A   Scattered Clouds
11:35 PM 21.2 °F 12.6 °F 15.8 °F 80% 30.19 in 10.0 mi ENE 6.9 mph - N/A   Clear
11:55 PM 21.2 °F 13.6 °F 12.2 °F 68% 30.20 in 10.0 mi NE 5.8 mph - N/A   Clear